Showing default

OPS 9334 (DATS), 2865

Orbit data source: Space-Track

OPS 9334 (DATS), 2865 is a payload satellite owned by SAMSO (US) in GEO that was launched on Sat, 01 Jul 1967 UTC via a TITAN IIIC launch vehicle from the Air Force Eastern Test Range (AFETR). Payload-class satellites include a variety of spacecraft equipped with specific instruments for various scientific and technological missions. These include communications satellites like Starlink; space stations such as the ISS; scientific satellites like the Hubble; Earth observation satellites from companies like Planet Labs, Umbra, and HawkEye 360; GPS; miniature CubeSats for education and research; and military/defense satellites.

Not visible in the next 10 days
Identifier
2865, 1967-066D
Orbit
GEO
Country
Flag of USUS
Related business
Manufacturer
Philco-Ford WDL
Mission
Non-operational spacecraft
Bus & Motor
IDCSP, Unknown motor
Mass
68 kg wet, 68 kg dry
Launch date (UTC)
1967-07-01 (59 years ago)
Launch vehicle
TITAN IIIC
Launch site
Air Force Eastern Test Range (AFETR)
Object type
Payload
Rocket body
Debris
Shape & HBR
Unknown
Radar Cross Section
Medium (>0.1 m² and <1 m²)

Expand to show TLE details & history
Last TLE update: 1 day ago

TLE from 1 day ago
0 OPS 9334 (DATS)
1 02865U 67066D   26148.80181347 -.00000092  00000-0  00000-0 0  9991
2 02865   2.6777  96.1548 0054496 225.9866 262.3048  1.09624750129956
Epoch: 2026-05-28T19:14Z
TLE epoch observation values (Epoch: 2026-05-28T19:14:36.683Z)
Latitude
2.09755°
Longitude
48.8668°
Altitude
33,381.729 km
Speed
3.165 km/s
True Right ascension
14h 55m 26s
True Declination
2° 05' 43"
Sunlit
Object was in daylight at epoch
Visualization orbit readout
Latitude
Unknown
Longitude
Unknown
Altitude
Unknown
Speed
Unknown
Apparent Right ascension
Unknown
Apparent Declination
Unknown
Sunlit
N/A
Visualization observer readout
Local Sidereal Time
11:23:25
Azimuth
Unknown
Elevation
Unknown
Doppler factor
Unknown
Orbital elements
Apogee altitude
33,570.51 km
Perigee altitude
33,137.462 km
Semi-major axis
39,732.123 km
Eccentricity
0.00545
Inclination
2.6777°
RAAN
96.1548°
Arg. of periapsis
225.9866°
True anomaly
261.68652°
Mean anomaly
262.3048°
Eccentric anomaly
261.9956°
Mean motion
0.27405 °/min
Orbital period
1,313.63 mins
BSTAR
0
Loading maneuver chart data...
Computing Atmospheric mass density...
Loading historical data...
Loading historical data...
Loading historical data...
Loading historical data...
Loading historical data...
Loading historical data...
Loading historical data...

Documentation

Showing up to 5 results
|